Weather in Muminabad

Tajikistan     38°06′32″N   70°01′38″E
temp.,
°C
wind,
m/s
gust,
m/s
humid.,
%
clouds,
%
prec.,
mm/h
press.,
hPa
HPBL,
m
21 april, wed
wed2123:00+9ese447287 1.9 101765
02:00+8ese4476100 1.1 101758
05:00+9ese4479100 2.3 101786
08:00+9ese468193 1.8 1019250
11:00+12sse5106890 2.6 10191476
14:00+10se4680100 2.8 1017475
17:00+11ese467690 6.2 1016301
20:00+8ese458198 2.9 101773
22 april, thu
thu2223:00+8ese4481100 4.4 101764
02:00+7ese44771 0.3 101847
05:00+7ese447299 0.4 101943
08:00+11se36581 0.1 1020970
11:00+13ssw58411 0.1 10211965
14:00+14sw553510 0.0 10212074
17:00+13wsw22361 0.0 10211441
20:00+9ene22481 0.0 102312
23 april, fri
fri2323:00+8e32531 0.0 102318
02:00+6e43530 0.0 102333
05:00+5e43510 0.0 102438
08:00+10e33460 0.0 1023218
11:00+15wnw11350 0.0 10221720
14:00+16wnw33330 0.0 10202002
17:00+15wnw224010 0.0 1019792
20:00+10e22500 0.0 102112
24 april, sat
sat2423:00+9e43461 0.0 102135
02:00+7e54395 0.0 102147
05:00+6e54360 0.0 102140
08:00+11e34415 0.0 1021153
11:00+18w11240 0.0 10191014
14:00+20wnw22274 0.0 10171265
17:00+19wnw2238100 0.0 1017531
20:00+13e2246100 0.0 101911
25 april, sun
sun2523:00+13e324497 0.0 102018
02:00+11e4335100 0.0 102029
05:00+10e433349 0.0 102031
08:00+14e334486 0.0 1019114
11:00+20wnw21265 0.0 1018883
14:00+21wnw3232100 0.0 10161219
17:00+20nw1146100 0.0 1016276
20:00+15e225245 0.0 101711